Regional Weather Roundup
Issued by NWS Cleveland, OH

Home | Current Version | Previous Version | Text Only | Print | Product List | Glossary Off
Versions: 1 2 3 4 5 6 7 8 9 10 11 12 13 14 15 16 17 18 19 20 21 22 23 24 25 26 27 28 29 30 31 32 33 34 35 36 37 38 39 40 41 42 43 44 45 46 47 48 49 50

000
ASUS41 KCLE 211810
RWRCLE
OHIO REGIONAL WEATHER ROUNDUP
NATIONAL WEATHER SERVICE CLEVELAND, OH
200 PM EDT SUN SEP 21 2014

NOTE: "FAIR" INDICATES FEW OR NO CLOUDS BELOW 12,000 FEET WITH NO
SIGNIFICANT WEATHER AND/OR OBSTRUCTIONS TO VISIBILITY.

OHZ001>008-015>018-024>027-034-035-043-044-211900-
   NORTHWEST OHIO

CITY           SKY/WX    TMP DP  RH WIND       PRES   REMARKS
DEFIANCE       CLOUDY   N/A N/A N/A W9G24     29.79R
FINDLAY        MOSUNNY   71  51  49 W25G36    29.76R
TOLEDO EXPRESS CLOUDY    65  49  56 W23       29.75R
TOLEDO EXEC    CLOUDY    67  48  50 W22G36    29.75R
LIMA           MOSUNNY   70  50  49 W25G35    29.80R
$$

OHZ009>014-019>023-028>033-038-089-211900-
   NORTHEAST OHIO

CITY           SKY/WX    TMP DP  RH WIND       PRES   REMARKS
CLE-HOPKINS    MOSUNNY   73  51  46 W21G31    29.71F
CLE-LAKEFRONT  MOSUNNY   70  57  63 W21       29.67F
CUY CO. ARPT   MOSUNNY   72  59  64 W17G29    29.69F
LORAIN-ELYRIA  MOSUNNY   75  53  46 W14G25    29.71F
ASHTABULA      MOSUNNY   70  57  63 W18G33    29.69S
AKRON-CANTON   MOSUNNY   80  49  33 W20G29    29.69F
WOOSTER        SUNNY     78  48  34 W14G32    29.72F
MANSFIELD      SUNNY     73  48  41 W18G28    29.75S
YOUNGSTOWN     MOSUNNY   75  57  53 W16G24    29.67F
$$

OHZ042-051>053-060>062-070>072-077>081-211900-
  SOUTHWEST OHIO

CITY           SKY/WX    TMP DP  RH WIND       PRES   REMARKS
CINC-COVINGTON MOSUNNY   77  46  33 W16G25    29.86S
CINC-LUNKEN    SUNNY     78  45  30 W17G26    29.85R
HAMILTON       SUNNY     78  47  33 W9G26     29.86S
DAYTON         MOSUNNY   76  44  32 W29G38    29.83F
WRIGHT-PAT AFB SUNNY     76  44  32 W18G33    29.82S
DAYTON GENERAL SUNNY     75  46  35 W17G29    29.84S
WILMINGTON     SUNNY     76  43  30 W21G28    29.82S
$$

OHZ036-037-039>041-045>050-054>059-063>069-073>076-082>088-211900-
  CENTRAL AND SOUTHEAST OHIO

CITY           SKY/WX    TMP DP  RH WIND       PRES   REMARKS
COLUMBUS       MOSUNNY   82  34  17 W25G31    29.76F
OSU AIRPORT    SUNNY     77  43  29 W18G26    29.77F
BOLTON FIELD   NOT AVBL
RICKENBACK AFB SUNNY     79  45  29 W22G32    29.77S
NEWARK         MOSUNNY   80  49  33 W15G24    29.74F
MARION         SUNNY     74  47  38 W18G33    29.77S
LANCASTER      MOSUNNY   80  57  45 W15G24    29.77S
ZANESVILLE     MOSUNNY   80  58  46 W18G30    29.73F
NEW PHILLY     MOSUNNY   81  57  43 W14G24    29.71F
$$



USA.gov is the U.S. government's official web portal to all federal, state and local government web resources and services.